Marion Regional, IL

11:55 PM CDT on October 17, 2017 (GMT -0500)
Williamson County Regional

Weather History for KMWA - March, 2013

Change the Weather History Date:

Friday, March 15, 2013

  Actual Average Record
Temperature  
Mean Temperature 52 °F -  
Max Temperature 73 °F 54 °F 78 °F (2016)
Min Temperature 32 °F 31 °F 12 °F (1993)
Degree Days  
Heating Degree Days 12    
Growing Degree Days 2 (Base 50)    
Moisture  
Dew Point 38 °F    
Average Humidity 70    
Maximum Humidity 100    
Minimum Humidity 29    
Precipitation  
Precipitation 0.00 in - - ()
Sea Level Pressure  
Sea Level Pressure 29.95 in    
Wind  
Wind Speed 5 mph (South)    
Max Wind Speed 16 mph    
Max Gust Speed 24 mph    
Visibility 13 miles    
Events      
Averages and records for this station are not official NWS values.
T = Trace of Precipitation, MM = Missing Value Source: NWS Daily Summary

Daily Weather History Graph

Daily Weather History Graph

Search for Another Location

Airport or City:

Trip Planner

Search our weather history database for the weather conditions in past years. The results will help you decide how hot, cold, wet, or windy it might be!

Date:

Astronomy

Mar. 15, 2013 Rise Set
Actual Time 7:06 AM CDT 7:03 PM CDT
Civil Twilight 6:40 AM CDT 7:29 PM CDT
Nautical Twilight 6:10 AM CDT 8:00 PM CDT
Astronomical Twilight 5:39 AM CDT 8:30 PM CDT
Moon 9:01 AM CDT (3/15) 11:12 PM CDT (3/15)
Length of Visible Light 12h 49m
Length of Day
11h 56m
Waxing Crescent, 15% of the Moon is Illuminated
Mar 15
Waxing Crescent
Mar 19
First Quarter
Mar 27
Full
Apr 2
Last Quarter
Apr 10
New

Hourly Weather History & Observations

Time (CDT) Temp. Windchill Dew Point Humidity Pressure Visibility Wind Dir Wind Speed Gust Speed Precip Events Conditions
12:15 AM 33.8 °F 29.6 °F 30.2 °F 87% 30.14 in 10.0 mi East 4.6 mph - N/A   Clear
12:35 AM 33.8 °F 30.8 °F 30.2 °F 87% 30.13 in 10.0 mi East 3.5 mph - N/A   Clear
12:55 AM 32.0 °F - 30.2 °F 93% 30.12 in 10.0 mi Calm Calm - N/A   Clear
1:15 AM 32.0 °F 26.4 °F 30.2 °F 93% 30.12 in 10.0 mi ESE 5.8 mph - N/A   Clear
1:35 AM 33.8 °F 30.8 °F 30.2 °F 87% 30.11 in 10.0 mi SE 3.5 mph - N/A   Clear
1:55 AM 33.8 °F 30.8 °F 30.2 °F 87% 30.10 in 10.0 mi SE 3.5 mph - N/A   Clear
2:15 AM 33.8 °F - 30.2 °F 87% 30.09 in 10.0 mi Calm Calm - N/A   Clear
2:35 AM 33.8 °F - 30.2 °F 87% 30.09 in 10.0 mi Calm Calm - N/A   Clear
2:55 AM 33.8 °F - 30.2 °F 87% 30.08 in 10.0 mi Calm Calm - N/A   Clear
3:15 AM 32.0 °F - 30.2 °F 93% 30.07 in 10.0 mi Calm Calm - N/A   Clear
3:35 AM 32.0 °F - 30.2 °F 93% 30.06 in 10.0 mi Calm Calm - N/A   Clear
3:55 AM 32.0 °F - 30.2 °F 93% 30.06 in 10.0 mi Calm Calm - N/A   Clear
4:15 AM 32.0 °F - 30.2 °F 93% 30.05 in 7.0 mi Calm Calm - N/A   Clear
4:35 AM 32.0 °F - 32.0 °F 100% 30.03 in 10.0 mi Calm Calm - N/A   Clear
4:55 AM 32.0 °F 26.4 °F 30.2 °F 93% 30.03 in 10.0 mi SSW 5.8 mph - N/A   Clear
5:15 AM 33.8 °F 29.6 °F 30.2 °F 87% 30.02 in 10.0 mi South 4.6 mph - N/A   Clear
5:35 AM 33.8 °F 29.6 °F 30.2 °F 87% 30.02 in 10.0 mi SSW 4.6 mph - N/A   Clear
5:55 AM 33.8 °F 29.6 °F 30.2 °F 87% 30.02 in 10.0 mi South 4.6 mph - N/A   Clear
6:15 AM 33.8 °F 28.6 °F 30.2 °F 87% 30.02 in 10.0 mi South 5.8 mph - N/A   Clear
6:35 AM 35.6 °F 31.7 °F 30.2 °F 81% 30.02 in 10.0 mi South 4.6 mph - N/A   Clear
6:55 AM 37.4 °F 32.8 °F 30.2 °F 75% 30.02 in 20.0 mi SSE 5.8 mph - N/A   Clear
7:55 AM 35.6 °F 30.7 °F 30.2 °F 81% 30.01 in 20.0 mi SSE 5.8 mph - N/A   Mostly Cloudy
8:55 AM 44.6 °F 41.4 °F 37.4 °F 76% 30.01 in 20.0 mi South 5.8 mph - N/A   Mostly Cloudy
9:55 AM 48.2 °F - 37.4 °F 66% 30.01 in 20.0 mi South 5.8 mph - N/A   Mostly Cloudy
10:55 AM 53.6 °F - 39.2 °F 58% 29.99 in 20.0 mi South 5.8 mph - N/A   Mostly Cloudy
11:55 AM 60.8 °F - 41.0 °F 48% 29.97 in 20.0 mi SW 5.8 mph - N/A   Scattered Clouds
12:55 PM 64.4 °F - 42.8 °F 45% 29.96 in 20.0 mi SSW 4.6 mph - N/A   Scattered Clouds
1:55 PM 68.0 °F - 41.0 °F 37% 29.92 in 20.0 mi SSW 4.6 mph - N/A   Scattered Clouds
2:55 PM 73.4 °F - 39.2 °F 29% 29.87 in 20.0 mi South 6.9 mph - N/A   Scattered Clouds
3:55 PM 73.4 °F - 44.6 °F 36% 29.85 in 20.0 mi South 9.2 mph - N/A   Mostly Cloudy
4:55 PM 69.8 °F - 46.4 °F 43% 29.83 in 20.0 mi South 11.5 mph - N/A   Mostly Cloudy
5:55 PM 69.8 °F - 46.4 °F 43% 29.81 in 20.0 mi South 9.2 mph - N/A   Mostly Cloudy
8:15 PM 64.4 °F - 50.0 °F 59% 29.77 in 10.0 mi South 11.5 mph - N/A   Clear
8:35 PM 66.2 °F - 50.0 °F 56% 29.76 in 10.0 mi South 15.0 mph - N/A   Clear
8:55 PM 64.4 °F - 50.0 °F 59% 29.76 in 10.0 mi SSW 15.0 mph 20.7 mph N/A   Clear
9:15 PM 66.2 °F - 50.0 °F 56% 29.76 in 10.0 mi SSW 13.8 mph 24.2 mph N/A   Clear
9:35 PM 64.4 °F - 50.0 °F 59% 29.76 in 10.0 mi SSW 12.7 mph - N/A   Clear
9:55 PM 64.4 °F - 50.0 °F 59% 29.76 in 10.0 mi SSW 13.8 mph - N/A   Clear
10:15 PM 68.0 °F - 50.0 °F 52% 29.76 in 10.0 mi SSW 13.8 mph 19.6 mph N/A   Clear
10:35 PM 68.0 °F - 48.2 °F 49% 29.76 in 10.0 mi SSW 12.7 mph 19.6 mph N/A   Clear
10:55 PM 68.0 °F - 48.2 °F 49% 29.76 in 10.0 mi SSW 12.7 mph 18.4 mph N/A   Clear
11:15 PM 68.0 °F - 48.2 °F 49% 29.75 in 10.0 mi SW 16.1 mph 20.7 mph N/A   Clear
11:35 PM 68.0 °F - 46.4 °F 46% 29.75 in 10.0 mi SW 15.0 mph 21.9 mph N/A   Clear
11:55 PM 68.0 °F - 46.4 °F 46% 29.74 in 10.0 mi SSW 15.0 mph 24.2 mph N/A   Clear